Location: Campillo
(40.8621°N, 4.2488°W)
Time: 16:14:19
(UTC+00:00)

Cosmos 2154 Rocket - Visible Passes

Search period start: 25 September 2021 00:00
Search period end: 05 October 2021 00:00
Orbit: 966 x 996 km, 82.9° (Epoch: 25 September)

Date Brightness Start Highest point End Pass type
(mag) Time Alt. Az. Time Alt. Az. Time Alt. Az.
25 Sep 6.2 05:37:17 10° NNE 05:42:50 32° ENE 05:48:19 10° SE visible
25 Sep 4.0 19:06:52 10° S 19:13:09 71° E 19:19:29 10° NNE visible
25 Sep 6.6 20:55:08 10° WSW 20:59:18 18° WNW 21:03:29 10° NNW visible
26 Sep 4.5 19:34:00 10° SSW 19:40:17 64° W 19:46:36 10° N visible
27 Sep 6.9 04:47:18 10° NNE 04:51:06 16° ENE 04:54:52 10° ESE visible
27 Sep 5.6 20:01:54 10° SW 20:07:36 35° WNW 20:13:21 10° N visible
28 Sep 6.2 05:13:15 10° NNE 05:18:42 30° ENE 05:24:04 10° SE visible
28 Sep 4.0 18:42:47 10° S 18:49:04 67° E 18:55:22 10° NNE visible
28 Sep 6.6 20:30:46 10° WSW 20:35:08 19° WNW 20:39:32 10° NNW visible
29 Sep 4.9 05:39:54 10° N 05:46:04 55° E 05:52:09 10° SSE visible
29 Sep 4.4 19:09:52 10° SSW 19:16:10 68° W 19:22:30 10° N visible
30 Sep 7.0 04:23:25 10° NNE 04:26:56 15° ENE 04:30:24 10° E visible
30 Sep 5.6 19:37:41 10° SW 19:43:28 37° WNW 19:49:18 10° N visible
01 Oct 6.2 04:49:14 10° NNE 04:54:33 28° ENE 04:59:48 10° SE visible
01 Oct 4.1 18:18:44 10° S 18:24:59 63° E 18:31:14 10° NNE visible
01 Oct 6.6 20:06:26 10° WSW 20:10:59 20° WNW 20:15:34 10° NNW visible
02 Oct 5.0 05:15:49 10° N 05:21:56 52° ENE 05:27:58 10° SSE visible
02 Oct 4.4 18:45:44 10° SSW 18:52:04 72° W 18:58:25 10° N visible
02 Oct 7.2 20:37:39 10° WNW 20:38:44 10° WNW 20:39:49 10° NW visible
03 Oct 7.0 03:59:32 10° NE 04:02:45 14° ENE 04:05:56 10° E visible
03 Oct 4.0 05:42:49 10° N 05:49:07 86° W 05:55:20 10° S visible
03 Oct 5.5 19:13:28 10° SW 19:19:21 39° WNW 19:25:15 10° N visible
04 Oct 6.2 04:25:12 10° NNE 04:30:24 26° ENE 04:35:30 10° SE visible
04 Oct 6.5 19:42:06 10° WSW 19:46:49 22° WNW 19:51:34 10° NNW visible
